星链-11715 (STARLINK-11715)

导读 | 豆包AI

STARLINK-11715是美国于2025年5月21日发射的Starlink卫星,属于SpaceX星链互联网星座项目。星链项目旨在打造全球卫星互联网通信系统,为全球偏远地区、高延迟区域提供低成本高速互联网接入服务,该卫星入轨后将参与星座组网,扩展星链的服务覆盖范围与通信能力。

基本信息
目录编号:
64076
目录名称:
STARLINK-11715
国际标识:
2025-107N
轨道中心:
EARTH
卫星名称:
星链-11715
卫星全名:
星链-11715 (STARLINK-11715)
卫星状态:
在轨 (已飞行297 天)
发射日期:
2025-05-21 UTC
国别 :
美国 (US)
星等 :
--
轨道信息
数据来源 国际轨道数据
星历时间: 2026-03-14T14:55:22+0800
12小时前
查看轨道信息
半长轴: 6734.503km
偏心率: 0.0002124
轨道倾角: 42.998°
近地点辐角 284.153°
升交点赤经 70.301°
平近点角 75.911°
近地点: 354.935km
远地点: 357.797km
周期: 91.668分钟
每日圈数: 15.708855
详细信息
固有亮度:
5
最大亮度:
2.5
卫星平台:
Starlink V1.0
覆盖范围:
全球
运营商:
太空探索技术公司
运营商所在国:
美国
制造商(研发单位):
太空探索技术公司
制造商所在国:
美国
使用方式:
暂无
卫星简介
Starlink 计划是 SpaceX 推出的全球卫星互联网项目,通过发射低轨道卫星,为全球尤其是偏远地区提供高速、低延迟的互联网服务。自 2019 年起,Starlink 已部署数千颗卫星,旨在缩小全球数字鸿沟,推动互联网普及。该项目还为军事、航空等行业提供通信支持,带来广泛经济效益。
2D轨道图
3D轨道图
轨道高度分析图
轨道倾角分析图
轨道综合分析图
查看轨道综合分析图